Vertical_Velocity
3 4 3 4 3 -2 -2 -1 -2 0 3 2 2 0 2 -0 1 0 1 -1 -0 0 2 1 -1 0 -1 -1 0 0 -1 0 -1 -0 -0 -3 1 -2 -3 1 -3 -1 -1
1 2 3 3 2 1 -1 1 1 2 2 1 0 0 2 1 -0 -1 -2 -1 -0 -1 -2 -2 -2 0 -1 -0 -1 -3 -1 1 -2 -3 -1 -1 1 -3 -1 -1 -2 -1 -1
0 2 -2 1 4 2 3 -0 0 0 -1 -1 0 0 1 -1 1 -0 2 2 1 -2 -1 -0 1 -1 -1 -1 -1 -3 -4 -2 -2 -4 -4 -1 1 -1 0 -0 -2 -1 -4
-3 -3 -4 -5 -1 -3 0 5 4 -1 -2 -0 1 1 1 1 1 1 2 1 0 3 2 2 4 2 1 1 2 0 0 -3 -4 -3 -2 -4 -2 1 2 2 -2 -0 2
3 2 -0 1 1 3 1 -3 -0 3 0 -1 -0 -1 -1 -0 -1 -1 1 -0 0 1 1 -0 1 2 1 2 2 2 -0 2 -0 -3 -6 -4 -2 -3 -2 -1 1 -0 -2
3 2 1 -1 0 3 4 4 -0 -3 1 -2 -0 3 3 2 2 0 -1 -1 0 0 1 1 1 1 1 2 2 2 -2 -1 1 2 -0 -4 -5 -2 -2 -3 -0 5 2
-2 3 0 3 2 -1 2 1 1 2 4 4 -1 -4 -1 -1 -1 -1 -1 -0 0 1 -1 2 2 2 1 -0 1 1 0 -1 -2 1 2 2 -0 -4 -2 -4 -1 -1 -1
3 0 -0 0 0 2 -1 1 1 3 -1 2 2 2 2 2 -0 -2 -1 0 -1 -1 0 -1 -2 -2 3 3 -0 -0 -0 -1 -2 -2 -0 2 4 2 -1 -4 -6 -3 0
-1 3 2 2 1 -1 3 1 2 2 1 2 2 2 0 1 1 0 -1 -2 -2 -0 1 0 -2 1 3 6 3 -1 -0 -1 -3 -4 -3 -2 -2 1 1 7 2 -0 -1
-1 1 3 3 4 3 1 2 2 3 3 1 1 3 0 1 -1 1 3 2 1 1 2 0 0 1 2 1 2 4 8 0 2 -1 0 -2 -3 0 2 -0 2 3 1
-1 -1 1 1 0 1 -0 0 0 1 2 2 1 2 -1 -0 -0 1 1 1 0 -0 -1 -1 1 3 2 3 0 1 4 12 1 1 -1 -1 -3 -4 -2 -1 -2 0 3
0 -4 -4 -1 -2 -3 -4 -1 -1 -1 1 1 1 2 0 1 -0 -2 0 -0 1 0 -1 1 -1 -1 -5 -1 2 -3 -2 2 1 1 1 -1 3 3 -2 -1 0 -1 -2
0 -0 0 2 0 -1 -1 -2 -3 -0 0 1 1 3 1 1 1 2 2 2 2 2 2 3 1 2 -1 -3 -1 -1 -2 -0 -0 4 3 2 -2 -2 -0 -1 1 4 0
1 2 1 -3 -0 0 -0 1 -1 -2 -1 1 -1 1 3 0 0 -0 1 -0 1 1 2 2 3 3 3 1 -0 -2 -3 1 2 2 4 -2 2 1 0 -4 -3 1 4
-2 -2 -3 0 -0 0 -0 0 0 -1 -1 0 1 1 3 3 1 1 -2 0 1 -2 -0 -1 0 0 1 1 0 1 1 -2 -0 4 3 -1 1 1 1 4 -1 -6 1
2 -0 -3 -4 -3 1 -0 -0 1 2 2 0 0 -0 0 -1 1 -0 -0 -0 0 -0 1 2 1 0 -2 -2 -2 -4 -2 -4 -2 -0 -3 0 2 1 -2 9 1 -18 5
1 -1 1 1 -3 -1 -1 -1 -0 0 1 1 0 1 0 0 1 0 0 -0 -2 -2 -1 -0 -1 -0 1 3 4 2 -1 -0 1 0 2 -0 -3 -0 3 -3 0 -1 11
1 -4 -2 -2 -3 -1 0 -1 -1 -1 0 -1 -0 -1 -1 -0 0 -0 -1 -0 -1 -2 -2 -3 -2 -2 -3 -2 0 1 1 -2 -0 0 0 -0 -1 -0 -1 -1 -2 -2 -7
3 -0 -3 -2 -3 -2 0 1 -1 -2 -1 -0 -2 -1 -1 -0 -0 1 -0 -1 -1 -1 -0 0 -2 -1 -1 -1 -1 0 -0 -0 1 -1 -0 -0 0 -4 -0 2 -4 -3 -6
1 2 -1 -1 1 0 0 -3 -3 -2 -2 -0 -0 -0 -0 0 0 0 -0 -0 -0 -1 -1 -1 -2 -3 -1 0 -0 0 -2 0 1 1 -1 -3 -1 -1 -3 2 -1 0 -0
0 4 2 -4 -2 1 0 -0 -0 -1 -1 -1 -1 -2 -1 -1 -0 -1 -1 -2 -1 1 0 -1 -0 -1 -2 -5 -2 2 -2 4 4 -1 2 -2 1 -3 -2 7 2 4 2
1 2 2 -2 -4 -2 -2 -1 1 -1 -1 -0 -1 -1 -0 -1 0 -1 -1 -0 -0 -1 -3 -3 -2 0 -2 -7 -9 -6 1 2 3 4 -1 3 -2 -1 1 -0 -0 6 2
1 -0 1 0 -1 -1 -3 -1 -0 0 -0 -0 -0 -1 -1 -1 -2 -1 -1 -0 -3 -5 -7 -8 -6 -5 -3 2 -11 -4 -6 3 5 -1 -1 5 5 -4 1 4 2 0 2
2 1 1 -2 -1 -2 0 1 -1 -1 0 -2 -1 -0 -1 -1 -1 -1 -3 -5 -5 -5 -4 -3 -5 -5 -7 -7 1 -6 -3 -9 -3 -1 -4 -3 11 2 0 6 5 2 4
4 1 2 2 1 0 -1 -1 -2 -2 -1 -1 -2 -2 -3 -3 -4 -7 -4 -5 -7 -5 -4 -2 1 -2 -3 -3 -1 5 2 -7 -4 -12 4 -7 11 10 5 5 -5 8 6
1 2 2 -0 1 1 0 -1 -2 -1 -3 -0 0 -0 -1 -1 -3 -4 -4 -6 -4 -4 0 -3 -2 -5 0 -3 -4 -3 -0 2 4 -10 -5 -1 -8 17 14 10 -6 -4 1
Height
3177 3177 3177 3178 3178 3179 3179 3179 3180 3180 3181 3181 3182 3182 3181 3181 3180 3180 3180 3179 3179 3178 3177 3176 3176 3176 3175 3174 3174 3173 3173 3173 3174 3174 3174 3174 3174 3175 3176 3176 3176 3176 3176
3175 3176 3177 3178 3178 3179 3179 3179 3180 3180 3181 3182 3182 3182 3182 3181 3181 3181 3181 3180 3180 3179 3179 3179 3177 3176 3176 3175 3175 3174 3174 3173 3173 3174 3174 3175 3175 3176 3176 3176 3177 3177 3177
3173 3175 3175 3176 3178 3179 3179 3180 3180 3180 3181 3182 3181 3181 3181 3181 3181 3181 3181 3181 3181 3181 3180 3179 3179 3177 3177 3176 3175 3174 3174 3174 3173 3174 3175 3175 3175 3176 3177 3177 3177 3177 3178
3170 3171 3172 3174 3175 3177 3178 3179 3180 3180 3180 3181 3181 3181 3181 3181 3181 3181 3181 3181 3181 3181 3180 3179 3178 3178 3177 3177 3176 3175 3175 3175 3174 3175 3175 3175 3176 3175 3177 3177 3177 3177 3178
3168 3169 3171 3173 3174 3175 3175 3176 3177 3179 3179 3180 3180 3180 3180 3180 3180 3180 3180 3180 3179 3179 3179 3178 3177 3176 3176 3177 3176 3175 3175 3175 3175 3175 3176 3175 3175 3176 3176 3177 3176 3177 3178
3169 3170 3171 3173 3174 3175 3176 3176 3176 3176 3176 3177 3178 3178 3178 3178 3179 3179 3178 3178 3178 3178 3177 3176 3176 3175 3174 3174 3174 3174 3174 3174 3175 3175 3175 3175 3176 3175 3176 3176 3176 3177 3177
3168 3169 3171 3172 3173 3174 3175 3175 3176 3176 3176 3175 3175 3175 3175 3176 3177 3177 3176 3176 3175 3175 3175 3175 3175 3174 3174 3174 3173 3173 3173 3174 3175 3175 3175 3175 3175 3175 3175 3175 3175 3176 3176
3168 3169 3170 3171 3172 3173 3174 3175 3174 3175 3175 3174 3174 3174 3173 3173 3173 3173 3173 3173 3173 3173 3172 3172 3172 3172 3171 3172 3172 3171 3171 3172 3173 3173 3173 3174 3174 3174 3174 3175 3175 3175 3175
3167 3169 3169 3170 3171 3171 3172 3172 3172 3172 3172 3172 3172 3172 3172 3172 3171 3171 3171 3170 3170 3169 3169 3169 3168 3170 3169 3168 3169 3169 3169 3169 3170 3171 3171 3170 3171 3171 3172 3173 3173 3173 3174
3165 3167 3168 3169 3169 3169 3169 3170 3169 3169 3169 3169 3169 3169 3169 3169 3169 3169 3169 3169 3168 3168 3167 3166 3166 3166 3166 3166 3166 3166 3166 3165 3167 3167 3167 3167 3167 3168 3168 3169 3170 3171 3171
3163 3165 3167 3166 3166 3166 3166 3166 3166 3166 3166 3166 3166 3166 3166 3165 3165 3166 3166 3165 3165 3165 3164 3164 3164 3164 3163 3163 3163 3163 3164 3162 3162 3163 3163 3163 3164 3164 3165 3165 3166 3167 3168
3160 3162 3163 3163 3163 3162 3162 3162 3161 3161 3161 3161 3161 3161 3161 3160 3161 3161 3161 3161 3161 3160 3160 3160 3160 3160 3159 3160 3159 3159 3159 3159 3160 3159 3159 3158 3158 3158 3158 3161 3162 3163 3164
3157 3157 3157 3157 3156 3156 3156 3156 3155 3155 3155 3155 3155 3154 3155 3155 3155 3155 3155 3155 3155 3156 3155 3155 3154 3154 3154 3154 3154 3154 3153 3154 3153 3154 3155 3154 3154 3154 3154 3155 3156 3159 3159
3152 3152 3151 3151 3150 3150 3149 3148 3148 3148 3148 3148 3148 3148 3148 3148 3148 3148 3148 3148 3149 3149 3149 3149 3149 3148 3148 3148 3148 3148 3147 3147 3147 3147 3148 3148 3148 3149 3150 3150 3150 3153 3154
3148 3148 3148 3146 3145 3143 3142 3142 3142 3142 3141 3140 3140 3140 3141 3141 3141 3140 3141 3141 3141 3140 3140 3140 3141 3141 3141 3141 3141 3141 3141 3141 3141 3141 3141 3141 3141 3142 3142 3144 3144 3145 3146
3144 3143 3143 3141 3139 3138 3137 3137 3136 3136 3135 3134 3134 3134 3134 3134 3134 3134 3134 3133 3133 3132 3132 3132 3132 3132 3132 3132 3132 3132 3133 3134 3134 3134 3133 3134 3134 3134 3135 3136 3135 3134 3132
3141 3139 3138 3135 3134 3133 3132 3132 3131 3130 3129 3129 3128 3128 3128 3127 3127 3127 3127 3127 3126 3126 3125 3125 3124 3124 3124 3123 3123 3123 3123 3123 3124 3124 3125 3125 3126 3127 3127 3128 3127 3126 3122
3136 3135 3133 3131 3129 3128 3127 3126 3126 3126 3125 3124 3124 3123 3123 3122 3122 3121 3121 3121 3120 3119 3118 3118 3117 3116 3115 3115 3115 3114 3113 3112 3112 3113 3114 3116 3117 3117 3119 3119 3118 3116 3116
3131 3129 3128 3127 3125 3124 3122 3121 3121 3120 3120 3119 3119 3118 3118 3117 3117 3116 3116 3115 3115 3113 3112 3110 3109 3108 3107 3106 3106 3105 3104 3103 3102 3102 3103 3105 3106 3107 3109 3110 3109 3106 3106
3126 3124 3123 3121 3120 3119 3118 3117 3117 3116 3115 3114 3114 3113 3112 3112 3111 3111 3110 3109 3108 3107 3106 3105 3103 3101 3099 3098 3098 3097 3096 3095 3093 3092 3093 3093 3095 3097 3098 3100 3100 3100 3100
3121 3119 3117 3117 3116 3115 3113 3113 3112 3111 3110 3110 3109 3108 3107 3106 3105 3104 3103 3103 3101 3099 3098 3096 3095 3093 3091 3088 3087 3087 3086 3085 3085 3083 3082 3082 3084 3087 3089 3091 3091 3092 3093
3114 3113 3112 3112 3111 3111 3109 3108 3107 3107 3106 3105 3105 3103 3102 3101 3100 3099 3097 3095 3094 3093 3091 3090 3088 3087 3085 3082 3079 3078 3076 3077 3076 3074 3073 3073 3073 3076 3079 3081 3082 3084 3085
3108 3108 3107 3107 3105 3104 3104 3103 3103 3102 3101 3101 3100 3099 3098 3096 3094 3092 3091 3090 3090 3089 3087 3085 3082 3079 3077 3075 3070 3069 3067 3065 3065 3065 3064 3065 3064 3065 3068 3069 3071 3072 3075
3100 3101 3101 3102 3101 3099 3099 3098 3098 3098 3098 3097 3095 3093 3092 3090 3089 3088 3087 3087 3085 3083 3080 3077 3073 3071 3069 3067 3064 3061 3058 3057 3055 3055 3055 3056 3056 3055 3058 3059 3060 3062 3063
3092 3093 3094 3095 3095 3094 3094 3094 3093 3093 3092 3091 3090 3088 3087 3086 3085 3084 3083 3082 3079 3077 3073 3069 3066 3062 3058 3056 3053 3051 3050 3048 3046 3044 3042 3045 3048 3048 3048 3050 3050 3052 3052
3084 3086 3088 3089 3088 3088 3088 3088 3088 3087 3087 3086 3086 3085 3083 3082 3081 3079 3077 3075 3072 3069 3065 3061 3058 3054 3049 3044 3042 3041 3038 3038 3036 3034 3030 3030 3035 3038 3037 3040 3039 3041 3042